EA1L-13 Weather Reports


time (UTC)temp
C
wind
direction
speed
KPH
gust
KPH
rain 1hr
cm
rain 24hr
cm
rain mn
cm
humidity
%
barometer
mb
20260508071504 12 195 0.0 0.0 0.00 0.08 0.00 100 1005.5
20260508070005 12 195 0.0 0.0 0.00 0.08 0.00 100 1005.5
20260508064504 11 185 0.0 0.0 0.00 0.08 0.00 100 1005.5
20260508063004 11 185 0.0 0.0 0.00 0.08 0.00 100 1005.5
20260508061504 11 185 0.0 0.0 0.00 0.08 0.00 100 1005.6
20260508060004 11 185 0.0 0.0 0.00 0.08 0.00 100 1005.8
20260508054504 11 185 0.0 3.2 0.00 0.08 0.00 100 1005.6
20260508053005 11 185 1.6 3.2 0.00 0.08 0.00 100 1005.6
20260508051504 11 225 0.0 0.0 0.00 0.08 0.00 100 1005.6
20260508050004 11 225 1.6 4.8 0.00 0.08 0.00 100 1005.6
20260508044504 11 306 0.0 0.0 0.00 0.08 0.00 100 1005.5
20260508043004 11 306 0.0 0.0 0.00 0.08 0.00 100 1005.6
20260508041505 11 306 0.0 0.0 0.00 0.08 0.00 100 1005.6
20260508040004 11 306 0.0 0.0 0.00 0.08 0.00 100 1005.8
20260508034504 11 306 1.6 4.8 0.00 0.08 0.00 100 1006.1
20260508033004 11 159 1.6 4.8 0.00 0.08 0.00 100 1006.0
20260508031504 10 240 0.0 0.0 0.00 0.08 0.00 100 1006.3
20260508030005 10 240 0.0 0.0 0.00 0.08 0.00 100 1006.4
20260508024504 11 306 1.6 4.8 0.00 0.08 0.00 100 1006.6
20260508023004 11 257 0.0 0.0 0.00 0.08 0.00 100 1006.6
20260508021504 11 257 0.0 0.0 0.00 0.08 0.00 100 1006.5
20260508020004 11 257 0.0 0.0 0.00 0.08 0.00 100 1006.6
20260508014504 11 257 0.0 0.0 0.00 0.08 0.00 100 1006.8
20260508013005 11 257 0.0 0.0 0.00 0.08 0.00 100 1006.8
20260508011504 11 257 0.0 0.0 0.00 0.08 0.00 100 1006.9
20260508010004 11 257 0.0 0.0 0.00 0.08 0.00 100 1007.2
20260508004504 11 263 0.0 0.0 0.00 0.08 0.00 100 1007.3
20260508003005 11 263 0.0 4.8 0.00 0.08 0.00 100 1007.5
20260508001504 11 266 1.6 4.8 0.00 0.08 0.00 100 1007.5
20260508000004 11 175 0.0 0.0 0.00 0.08 0.00 100 1007.5
20260507234504 11 174 1.6 4.8 0.00 0.08 0.00 100 1007.7
20260507233004 11 247 0.0 0.0 0.00 0.08 0.00 100 1007.8
20260507231504 11 248 0.0 0.0 0.00 0.08 0.00 100 1007.9
20260507230004 11 248 1.6 4.8 0.00 0.08 0.00 100 1008.1
20260507224504 11 264 0.0 4.8 0.00 0.08 0.00 100 1008.1
20260507223004 11 195 0.0 4.8 0.00 0.08 0.00 99 1008.1
20260507221504 11 183 3.2 9.7 0.00 0.08 0.00 98 1008.1
20260507220004 11 165 8.0 9.7 0.00 0.08 0.00 97 1008.1
20260507214505 11 171 0.0 3.2 0.00 0.08 0.08 96 1008.2
20260507213005 11 194 0.0 3.2 0.00 0.08 0.08 95 1008.2
20260507211504 11 194 0.0 4.8 0.00 0.08 0.08 95 1008.4
20260507210005 11 194 1.6 8.0 0.00 0.08 0.08 94 1008.3
20260507204505 12 203 1.6 4.8 0.00 0.08 0.08 92 1008.2
20260507203005 11 203 0.0 0.0 0.00 0.08 0.08 91 1007.9
20260507201504 12 203 0.0 4.8 0.00 0.08 0.08 90 1008.0
20260507200004 12 203 3.2 4.8 0.00 0.08 0.08 90 1007.8
20260507194504 12 205 0.0 4.8 0.00 0.08 0.08 89 1007.6
20260507193005 12 205 0.0 3.2 0.00 0.08 0.08 88 1007.6
20260507191504 12 205 1.6 8.0 0.00 0.08 0.08 88 1007.4
20260507190005 13 193 4.8 8.0 0.00 0.08 0.08 88 1007.3
20260507184504 13 193 4.8 9.7 0.00 0.08 0.08 89 1007.3
20260507183005 13 205 0.0 0.0 0.03 0.08 0.08 89 1007.2
20260507181504 13 205 0.0 0.0 0.03 0.08 0.08 88 1007.2
20260507180004 13 205 0.0 11.3 0.05 0.08 0.08 85 1007.3
20260507174504 13 209 8.0 16.1 0.05 0.08 0.08 81 1007.1
20260507173005 14 122 6.4 11.3 0.03 0.05 0.05 80 1007.5
20260507171504 15 229 0.0 0.0 0.03 0.05 0.05 78 1007.5
20260507170005 15 229 0.0 0.0 0.00 0.03 0.03 75 1007.3
20260507164504 15 229 0.0 4.8 0.00 0.03 0.03 74 1007.1
20260507163005 15 329 3.2 4.8 0.00 0.03 0.03 71 1006.9
20260507161504 15 64 0.0 4.8 0.00 0.03 0.03 71 1006.7
20260507160004 15 44 3.2 11.3 0.00 0.03 0.03 69 1006.6
20260507154504 16 68 1.6 9.7 0.03 0.03 0.03 68 1006.6
20260507153005 15 84 1.6 9.7 0.03 0.03 0.03 69 1006.7
20260507151504 15 38 8.0 19.3 0.03 0.03 0.03 71 1006.6
20260507150006 15 35 3.2 19.3 0.03 0.03 0.03 74 1006.3
20260507144504 15 45 8.0 16.1 0.00 0.00 0.00 70 1006.7
20260507143005 16 312 3.2 4.8 0.00 0.00 0.00 66 1007.2
20260507141504 16 76 1.6 19.3 0.00 0.00 0.00 66 1006.8
20260507140004 17 67 9.7 19.3 0.00 0.00 0.00 65 1006.5
20260507134504 17 63 9.7 22.5 0.00 0.03 0.00 67 1006.6
20260507133005 16 43 9.7 22.5 0.00 0.08 0.00 69 1006.7
20260507131504 16 68 4.8 14.5 0.00 0.08 0.00 69 1007.2
20260507130004 16 45 8.0 14.5 0.00 0.08 0.00 68 1007.2
20260507124504 16 123 4.8 19.3 0.00 0.08 0.00 70 1007.3
20260507123005 16 98 4.8 19.3 0.00 0.08 0.00 71 1007.3
20260507121504 15 49 9.7 16.1 0.00 0.08 0.00 70 1007.4
20260507120005 15 355 1.6 11.3 0.00 0.08 0.00 66 1007.9
20260507114504 15 356 8.0 12.9 0.00 0.08 0.00 66 1008.2
20260507113006 15 329 3.2 9.7 0.00 0.08 0.00 71 1008.2
20260507111504 15 47 8.0 14.5 0.00 0.08 0.00 73 1008.1
20260507110004 15 62 4.8 11.3 0.00 0.08 0.00 87 1008.2
20260507104504 15 125 3.2 12.9 0.00 0.08 0.00 100 1008.3
20260507103004 15 338 3.2 11.3 0.00 0.08 0.00 100 1008.6
20260507101504 16 321 4.8 11.3 0.00 0.08 0.00 100 1008.7
20260507100004 15 296 3.2 8.0 0.00 0.08 0.00 100 1008.8
20260507094504 15 5 1.6 11.3 0.00 0.08 0.00 100 1008.8
20260507093005 15 314 3.2 9.7 0.00 0.08 0.00 100 1008.9
20260507091504 14 295 0.0 4.8 0.00 0.08 0.00 100 1009.0
20260507090005 13 315 3.2 4.8 0.00 0.08 0.00 100 1008.8
20260507084504 14 305 1.6 4.8 0.00 0.08 0.00 100 1008.9
20260507083005 13 250 0.0 4.8 0.00 0.08 0.00 100 1009.1
20260507081504 13 206 0.0 0.0 0.00 0.08 0.00 100 1009.1
20260507080004 12 205 0.0 0.0 0.00 0.08 0.00 100 1009.3
20260507074504 11 211 0.0 0.0 0.00 0.08 0.00 100 1009.4
20260507073004 11 211 0.0 0.0 0.00 0.08 0.00 100 1009.5